Погода в Сороках

Молдова     48°09′36″N   28°17′47″E
темп.,
°C
ветер,
м/с
пор.,
м/с
влажн.,
%
обл.,
%
осадки,
мм/ч
давл.,
гПа
погр.,
м
28 ноября, вс
вс2823:00+6ююз22790 0.0 100410
02:00+5юв11830 0.0 100410
05:00+5юв228326 0.0 100311
08:00+5вюв3383100 0.0 100238
11:00+10ююв41164100 0.0 1001388
14:00+12ююв51066100 0.0 1000598
17:00+9юв229017 0.0 99922
20:00+8юв2293100 0.0 99914
29 ноября, пн
пн2923:00+7вюв2293100 0.0 99818
02:00+7юв349687 0.0 99677
05:00+6юв3592100 0.0 99380
08:00+6вюв339184 0.0 99241
11:00+9ююв3581100 0.0 990383
14:00+10сз3371100 0.0 988636
17:00+3сз121893100 0.8 991805
20:00+3зсз91577100 3.5 996879
30 ноября, вт
вт3023:00+2зсз714735 0.0 997670
02:00+1з613695 0.0 1001668
05:00+1з6156623 0.0 1002654
08:000зюз41169100 0.0 1004323
11:00+4зсз81453100 0.0 10051214
14:00+4зсз9145675 0.0 10031280
17:00+1сз815665 0.0 1005868
20:000сз512655 0.0 1005500
1 декабря, ср
ср123:00−1юз367099 0.0 1005122
02:000юз51265100 0.0 1005411
05:00+1юз51159100 0.0 1004309
08:00+1юз41157100 0.0 1005290
11:00+5з713475 0.0 10051270
14:00+6зсз71354100 0.0 10061585
17:00+4з126381 0.0 100611
20:00+4ю365895 0.0 1006138
2 декабря, чт
чт223:00+5ююз5135776 0.0 1005336
02:00+3ююз310725 0.0 1005171
05:00+4юз4127296 0.0 1005230
08:00+3юз357699 0.0 100582
11:00+8юз4853100 0.0 1006389
14:00+10юз4649100 0.0 1005454
17:00+6ю336274 0.0 100620
20:00+5ю22725 0.0 100616